This is the latest recevied weather packets stored in our database for station/object KM5R. If no packets are shown the sender has not sent any weather packets the latest 1 day(s).
| Time | Temp. | Humidity | Pressure | Rain* | Wind** | Luminosity | Snow |
|---|---|---|---|---|---|---|---|
| 1778023246 | 30° C | 60% | 1006.3 hPa | 0 mm | 1.34 m/s, 74° | 81 W/m² | - |
| 1778022943 | 30.56° C | 59% | 1006.6 hPa | 0 mm | 1.79 m/s, 164° | 78 W/m² | - |
| 1778022642 | 30.56° C | 59% | 1006.7 hPa | 0 mm | 1.79 m/s, 91° | 178 W/m² | - |
| 1778022339 | 30.56° C | 59% | 1006.7 hPa | 0 mm | 2.24 m/s, 154° | 187 W/m² | - |
| 1778022035 | 30.56° C | 58% | 1006.6 hPa | 0 mm | 0.89 m/s, 76° | 146 W/m² | - |
| 1778021732 | 30.56° C | 58% | 1006.6 hPa | 0 mm | 2.24 m/s, 239° | 157 W/m² | - |
| 1778021428 | 30.56° C | 58% | 1006.6 hPa | 0 mm | 1.34 m/s, 168° | 136 W/m² | - |
| 1778021125 | 30.56° C | 58% | 1006.6 hPa | 0 mm | 2.24 m/s, 149° | 151 W/m² | - |
| 1778020822 | 30.56° C | 57% | 1006.7 hPa | 0 mm | 4.02 m/s, 134° | 164 W/m² | - |
| 1778020520 | 31.11° C | 56% | 1006.6 hPa | 0 mm | 2.68 m/s, 63° | 210 W/m² | - |
| 1778020216 | 31.67° C | 55% | 1006.4 hPa | 0 mm | 3.58 m/s, 130° | 223 W/m² | - |
| 1778019912 | 31.67° C | 56% | 1006.3 hPa | 0 mm | 0 m/s | 156 W/m² | - |
| 1778019608 | 31.11° C | 56% | 1006.3 hPa | 0 mm | 1.34 m/s, 117° | 301 W/m² | - |
| 1778019305 | 31.67° C | 55% | 1006.3 hPa | 0 mm | 2.24 m/s, 86° | 187 W/m² | - |
| 1778019002 | 31.67° C | 54% | 1006.3 hPa | 0 mm | 2.68 m/s, 132° | 307 W/m² | - |
| 1778018699 | 31.67° C | 53% | 1006.4 hPa | 0 mm | 0.45 m/s, 181° | 421 W/m² | - |
| 1778018397 | 32.22° C | 52% | 1006.5 hPa | 0 mm | 3.13 m/s, 106° | 547 W/m² | - |
| 1778018095 | 32.22° C | 49% | 1006.5 hPa | 0 mm | 2.68 m/s, 153° | 467 W/m² | - |
| 1778017792 | 32.22° C | 48% | 1006.5 hPa | 0 mm | 0.89 m/s, 189° | 383 W/m² | - |
| 1778017490 | 32.22° C | 48% | 1006.4 hPa | 0 mm | 0.89 m/s, 87° | 505 W/m² | - |
| 1778017187 | 32.22° C | 49% | 1006.5 hPa | 0 mm | 1.34 m/s, 210° | 406 W/m² | - |
| 1778016885 | 31.67° C | 50% | 1006.5 hPa | 0 mm | 0.45 m/s, 123° | 352 W/m² | - |
| 1778016581 | 32.22° C | 50% | 1006.4 hPa | 0 mm | 0.45 m/s, 200° | 364 W/m² | - |
| 1778016278 | 31.67° C | 50% | 1006.2 hPa | 0 mm | 1.34 m/s, 254° | 374 W/m² | - |
| 1778015974 | 32.22° C | 49% | 1006.5 hPa | 0 mm | 3.13 m/s, 137° | 449 W/m² | - |
* Rain latest hour (hover to see other rain measurements)
** Current wind speed in m/s (hover to see current wind gust speed)